www.pogodaiklimat.ru

Погода и климат >> Архив погоды >> Россия >> Хабаровский край >> Байдуков


ПОГОДА в Байдукове

  • Прогноз погоды в Байдукове
  • Монитор погоды в Байдукове
  • Климат города

АРХИВ ПОГОДЫ в Байдукове

Время (UTC), дата Ветер
(напр.,м/с)
 
Видим.   Явления Облачность Т
(С)
Тd
(С)
f
(%)
Тe
(С)
Тes
(С)
Комфортность P
(гПа)
Po
(гПа)
Тmin
(С)
Tmax
(С)
R
(мм)
R24
(мм)
S
(см)
09 18.04 В 8 50 км 10 баллов +1.2 -4.2 67 -6 -6 1012.6 1012.0 +3.1
15 18.04 ЮВ 2 50 км 3/0
[Cs]
-1.1 -5.6 71 -5 -5 1013.3 1012.3
21 18.04 В 3 50 км 10/4 600 м
[Sc As trans]
-3.5 -5.4 87 -9 -9 1014.3 1013.3 -4.2 40
03 19.04 СВ 4 50 км 10/1 600 м
[Cu hum Cs]
+0.8 -2.7 77 -4 +2 1015.7 1014.7
09 19.04 СВ 7 50 км 10 баллов -0.8 -3.3 83 -8 -8 1017.9 1017.3 +0.9
15 19.04 С 6 50 км 10/0
[Ac As]
-2.8 -4.6 87 -10 -10 1016.4 1015.4
21 19.04 С 8 50 км 10/0
[Ac As Ci]
-3.3 -5.7 83 -12 -11 1015.9 1014.9 -3.9 37
03 20.04 С 8 10 км слабый снег 10 баллов -1.1 -3.1 86 -9 -9 1015.3 1014.7
09 20.04 СЗ 10-12
{12}
10 км слабый снег {метель} 10/0
[]
-1.7 -2.8 92 -11 -11 1013.1 1012.1 -1.0
15 20.04 СЗ 6 20 км в посл. час снег 10/0
[As op]
-1.6 -2.6 93 -9 -9 1012.1 1011.1
21 20.04 СЗ 8 10 км 10 баллов -1.5 -2.6 92 -10 -10 1011.3 1010.7 -1.7
03 21.04 СЗ 8 10 км 10 баллов -1.1 -2.8 88 -9 -9 1011.3 1010.7
09 21.04 СЗ 7
{11}
10 км {ливн. осадки, метель} 10/10 600 м
[Cb cap]
-0.6 -1.9 91 -8 -8 1010.4 1009.4 -0.4
15 21.04 С 7 10 км слабый снег 10/0 600 м
[As op]
-0.8 -1.8 93 -8 -8 1011.3 1010.3
21 21.04 СЗ 5 4000 м снежные зёрна 10/10 100 м
[St]
-1.4 -2.3 94 -8 -8 1012.9 1011.9 -1.5 0.4 40
03 22.04 СЗ 6 50 км 10/10 600 м
[Sc]
+0.1 -2.4 83 -6 -6 1014.5 1013.5
09 22.04 СЗ 3 50 км 10 баллов -0.6 -2.3 88 -5 -5 1017.9 1017.3 +0.1 0.0
15 22.04 СЗ 2 10 км слабый снег 10/10 600 м
[Sc]
-1.4 -2.5 92 -5 -5 1018.3 1017.3
21 22.04 СЗ 3 10 км 10/10 600 м
[Sc]
-1.8 -4.3 83 -7 -7 1019.7 1018.7 -2.2 0.3 39
03 23.04 СВ 2 50 км 10/10 600 м
[Sc]
-1.2 -4.5 78 -5 -5 1020.6 1020.0
09 23.04 С 3 50 км 7 баллов -3.2 -4.5 91 -9 -8 1023.3 1022.7 -0.3
15 23.04 СВ 2 20 км 10/10 600 м
[Sc]
-3.3 -4.2 93 -8 -8 1024.0 1023.0
21 23.04 СВ 2 10 км снежные зёрна 10/10 50 м
[St]
-4.3 -5.3 93 -9 -9 1025.1 1024.0 -4.4 0.2 38
03 24.04 С 3 500 м туман ?/? -2.8 -4.0 91 -8 -8 1024.5 1023.5
09 24.04 СЗ 4 50 км 2 балла -2.8 -4.1 91 -9 -9 1024.6 1024.0 -1.4
15 24.04 СЗ 2 2000 м дымка ясно -6.0 -7.1 92 -10 -10 1024.2 1023.2
21 24.04 штиль 0 2000 м дымка 10/10 600 м
[St]
-4.6 -5.6 93 -6 -6 1024.5 1023.4 -7.2 35
03 25.04 ЮВ 3 500 м туман ?/? -1.2 -2.1 94 -6 -6 1022.2 1021.2

 

Местоположение метеостанции Байдуков (Хабаровский край, Россия): широта 53.30 долгота 141.40 высота над уровнем моря 5 м.

В архиве по умолчанию представлена погода в Байдукове за последнюю неделю. Архивные данные за месяц целиком и за предыдущие месяцы, начиная с января 2011 года, Вы можете получить, выбрав интересующий диапазон дат из раскрывающегося списка и нажав кнопку "Ввод!".

Внимание! Время в таблицах - всемирное. Для получения местного времени необходимо прибавить поправку, которая в Байдукове равна 10 ч.

Смотрите также архив погоды в соседних городах и на ближайших метеорологических станциях:

Погода в Николаевск-на-Амуре (Хабаровский край, Россия) (50 км)
Погода в Джаоре (Хабаровский край, Россия) (71 км)
Погода в Москальво (Сахалинская область, Россия) (79 км)
Погода в Оха (Сахалинская область, Россия) (102 км)
Погода в Литке (Хабаровский край, Россия) (102 км)
Погода в Одопту (Сахалинская область, Россия) (120 км)
Погода в Погибях (Сахалинская область, Россия) (121 км)
Погода в Богородском (Хабаровский край, Россия) (122 км)
Погода в Ныврово (Сахалинская область, Россия) (139 км)
Погода в Вал (Сахалинская область, Россия) (152 км)

Пояснения к столбцам:

Ветер - указаны скорость ветра в м/с - средняя за 10 мин, порывы в срок и между сроками (в фигурных скобках) и направление, откуда дует ветер: С - северный, СВ - северо-восточный, В - восточный, ЮВ - юго-восточный, Ю - южный, ЮЗ - юго-западный, З - западный, СЗ - северо-западный.
Видимость - горизонтальная дальность видимости в метрах или километрах. При видимости от 1 до 10 км при отсутствии осадков обычно наблюдается дымка, при ухудшении видимости до 1 км и менее - туман. В сухую погоду видимость может ухудшаться дымом, пылью или мглою.
Явления - указаны атмосферные явления, наблюдавшиеся в срок или в последний час перед сроком; фигурными скобками обозначены явления, наблюдавшиеся между сроками (за 1-3 часа до срока); квадратными скобками обозначены град или гололедные отложения с указанием их диаметра в мм.
Облачность - указаны через наклонную черту общая и нижняя облачность в баллах и высота нижней границы облаков в метрах; квадратными скобками обозначены формы облаков: Ci - перистые, Cs - перисто-слоистые, Cc - перисто-кучевые, Ac - высококучевые, As - высокослоистые, Sc - слоисто-кучевые, Ns - слоисто-дождевые, Cu - кучевые, Cb - кучево-дождевые. Подробнее классификацию облаков см. в Атласе облаков (PDF).
T - Температура воздуха - температура, измеренная на высоте 2 м над землей.
Td - Температура точки росы - температура, при понижении до которой содержащийся в воздухе водяной пар достигнет насыщения.
f - Относительная влажность воздуха - влажноcть воздуха, измеренная на высоте 2 м над землей.
Te - Эффективная температура - температура, которую ощущает одетый по сезону человек в тени. Характеристика душности погоды. При расчете учитывается влияние влажности воздуха и скорости ветра на теплоощущения человека.
Tes - Эффективная температура на солнце - температура, которую ощущает человек, с поправкой на солнечный нагрев. Характеристика знойности погоды. Зависит от высоты солнца над горизонтом, облачности и скорости ветра. Ночью, в пасмурную погоду, а также при ветре 12 м/с и более поправка равна нулю.
P - Атмосферное давление - приведенное к уровню моря атмосферное давление.
Po - Атмосферное давление - измеренное на уровне метеостанции атмосферное давление.
Tmin - Минимальная температура - минимум температуры воздуха на высоте 2 м над землей.
Tmax - Максимальная температура - максимум температуры воздуха на высоте 2 м над землей.
R - Количество осадков - Количество выпавших осадков за период времени, мм. При наведении курсора мыши на число - период времени, за который выпало указанное количество осадков.
R24 - Количество осадков - Количество выпавших осадков за 24 часа, мм.
S - Снежный покров - Высота снежного покрова, см. При наведении курсора мыши на число - состояние снежного покрова и степень покрытия местности в баллах.